[[{"header":{"parameterUnit":"m.s-1","parameterCategory":1,"la1":30.2991,"la2":30.254,"lo1":-89.0895,"lo2":-89.0444,"dy":0.0017,"dx":0.0017,"nx":28,"ny":28,"refTime":"2023-07-30T03:00:00:Z","depth":0,"parameterNumber":2,"parameterNumberName":"U-component_of_WINDS"},"data":[0,0,0,0,0,0,0,0,0,0,0,0,0,0,0,0,0,0,0,0,0,0,0,0,0,0,0,0,0,0,0,0,0,0,0,0,0,0,0,0,0,0,0,0,0,0,0,0,0,0,0,0,0,0,0,0,0,0,-0.7115,-0.7113,0,-0.6993,-0.6991,-0.699,-0.6949,-0.695,-0.695,-0.6951,-0.6821,-0.6818,-0.6814,0,0,0,0,0,0,0,0,0,0,0,0,0,-0.7309,-0.7306,-0.7115,-0.7113,-0.7112,-0.6993,-0.6991,-0.699,-0.6949,-0.695,-0.695,-0.6951,-0.6823,-0.6818,-0.6813,0,0,0,0,0,0,0,0,0,0,0,0,0,-0.721,-0.7305,-0.7115,-0.7077,-0.7073,-0.6993,-0.6991,-0.6989,-0.6949,-0.695,-0.695,-0.6951,-0.6824,-0.6818,-0.6813,-0.6761,0,0,-0.6795,-0.6792,0,0,0,0,0,0,0,0,-0.7215,-0.7203,-0.7084,-0.708,-0.7074,-0.6987,-0.7012,-0.6912,-0.6949,-0.6996,-0.6951,-0.6952,-0.6876,-0.6865,-0.6841,-0.6754,-0.6749,-0.6794,-0.6791,-0.6788,-0.6786,0,0,0,0,0,0,0,-0.7222,-0.7208,-0.7066,-0.7083,-0.7077,-0.7065,-0.7052,-0.6993,-0.6933,-0.6992,-0.6988,-0.6975,-0.6873,-0.6847,-0.6837,-0.6747,-0.6794,-0.6789,-0.6785,-0.6783,-0.6613,-0.6612,0,0,0,0,0,0,-0.7236,-0.7214,-0.707,-0.7063,-0.7148,-0.7061,-0.7046,-0.7014,-0.6933,-0.6922,-0.6974,-0.6973,-0.6856,-0.6844,-0.6833,-0.6767,-0.6788,-0.6782,-0.6779,-0.6614,-0.6613,-0.6612,0,0,0,0,0,0,-0.7241,-0.7224,-0.7075,-0.7137,-0.7118,-0.7057,-0.7021,-0.7011,-0.6985,-0.692,-0.6909,-0.6959,-0.6856,-0.6841,-0.6779,-0.6762,-0.678,-0.6774,-0.6615,-0.6614,-0.6612,-0.6635,0,0,0,0,0,0,-0.7246,-0.7226,-0.7206,-0.7137,-0.7114,-0.7025,-0.702,-0.7008,-0.6975,-0.6973,-0.6902,-0.6891,-0.6856,-0.6788,-0.6774,-0.6754,-0.677,-0.6617,-0.6615,-0.6613,-0.6636,-0.6635,-0.6634,0,0,0,0,0,-0.7253,-0.7216,-0.7205,-0.7188,-0.7089,-0.7024,-0.7011,-0.6972,-0.6974,-0.6953,-0.6912,-0.6894,-0.6767,-0.6782,-0.6765,-0.6744,-0.6617,-0.6615,-0.6613,-0.6636,-0.6635,-0.6634,0,0,0,0,0,0,-0.7282,-0.7206,-0.7193,-0.7132,-0.7085,-0.7017,-0.699,-0.6972,-0.6921,-0.6921,-0.6874,-0.6858,-0.68,-0.6766,-0.6785,-0.669,-0.6691,-0.6685,-0.6714,-0.6713,-0.6712,-0.6721,-0.6765,0,0,0,0,0,-0.7282,-0.7236,-0.7172,-0.7125,-0.7102,-0.705,-0.702,-0.6995,-0.6943,-0.6923,-0.6876,-0.6826,-0.6775,-0.6742,-0.6691,-0.6631,-0.6615,-0.6608,-0.6607,-0.6607,-0.6602,-0.6568,-0.6565,-0.6605,-0.6605,-0.6605,0,0,-0.7279,-0.7232,-0.7206,-0.7129,-0.709,-0.7043,-0.7033,-0.6984,-0.6949,-0.6914,-0.6854,-0.6819,-0.6759,-0.6699,-0.667,-0.6668,-0.6588,-0.6604,-0.6604,-0.6599,-0.6566,-0.6562,-0.6559,-0.6603,-0.6603,-0.6604,0,0,-0.7252,-0.7212,-0.7169,-0.713,-0.7071,-0.7037,-0.7027,-0.6962,-0.6937,-0.6877,-0.685,-0.6807,-0.672,-0.6679,-0.6647,-0.6606,-0.6588,-0.6591,-0.6586,-0.6554,-0.655,-0.6547,-0.6533,-0.6529,-0.6587,-0.6587,-0.6587,0,-0.7256,-0.7186,-0.7148,-0.7101,-0.7068,-0.7037,-0.6992,-0.6956,-0.6883,-0.686,-0.686,-0.6752,-0.6709,-0.6639,-0.663,-0.6604,-0.6591,-0.6598,-0.6554,-0.6551,-0.6547,-0.6533,-0.6528,-0.6588,-0.6588,-0.6587,-0.6587,0,-0.7195,-0.7147,-0.7119,-0.7051,-0.7015,-0.697,-0.6924,-0.6892,-0.687,-0.6836,-0.6775,-0.6723,-0.6662,-0.6644,-0.6621,-0.6571,-0.6572,-0.6564,-0.6564,-0.6545,-0.6531,-0.6525,-0.6589,-0.6589,-0.6588,-0.6588,0,0,-0.718,-0.7094,-0.7084,-0.7054,-0.6987,-0.6949,-0.6902,-0.6844,-0.6818,-0.6769,-0.6728,-0.6656,-0.6649,-0.6612,-0.6585,-0.6557,-0.6529,-0.6552,-0.655,-0.655,-0.6471,-0.6477,-0.6472,-0.6517,-0.6516,-0.6515,-0.6476,0,-0.7144,-0.7061,-0.7026,-0.6958,-0.6914,-0.6884,-0.6844,-0.6798,-0.6766,-0.6722,-0.6686,-0.6636,-0.663,-0.6608,-0.6579,-0.6539,-0.6512,-0.6541,-0.6478,-0.6476,-0.6493,-0.6464,-0.647,-0.6436,-0.647,-0.6469,-0.6468,0,-0.7091,-0.7044,-0.6972,-0.6913,-0.6892,-0.6857,-0.6801,-0.6761,-0.6709,-0.6687,-0.6648,-0.6622,-0.6572,-0.6576,-0.6506,-0.6526,-0.6499,-0.6475,-0.6473,-0.6465,-0.6471,-0.6455,-0.6424,-0.6419,-0.6459,-0.646,-0.6461,0,-0.7088,-0.7006,-0.6953,-0.6928,-0.6857,-0.6832,-0.6801,-0.675,-0.6718,-0.667,-0.6648,-0.6594,-0.6564,-0.6523,-0.6483,-0.649,-0.6417,-0.6418,-0.6397,-0.6398,-0.6382,-0.6383,-0.6346,-0.6365,-0.6365,-0.6365,-0.6365,0,-0.7051,-0.7008,-0.6951,-0.6918,-0.687,-0.683,-0.6783,-0.675,-0.6705,-0.6665,-0.6636,-0.6599,-0.6549,-0.6506,-0.6474,-0.6421,-0.6408,-0.6389,-0.6381,-0.6391,-0.6393,-0.6371,-0.6373,-0.6364,-0.6364,-0.6364,-0.6364,0,-0.7038,-0.6999,-0.6939,-0.6878,-0.6861,-0.6828,-0.6775,-0.6742,-0.6709,-0.6659,-0.6645,-0.6593,-0.654,-0.6497,-0.6428,-0.6407,-0.6351,-0.6342,-0.6369,-0.6365,-0.6347,-0.6349,-0.6293,-0.6284,-0.631,-0.631,-0.631,0,-0.7017,-0.6984,-0.692,-0.6892,-0.6862,-0.6817,-0.6785,-0.6745,-0.6712,-0.6652,-0.6626,-0.6572,-0.6526,-0.6444,-0.6399,-0.6346,-0.6335,-0.6319,-0.6327,-0.6339,-0.6335,-0.6338,-0.6334,-0.6319,-0.6318,-0.6318,-0.6318,0,-0.6984,-0.6967,-0.6922,-0.6871,-0.6834,-0.6791,-0.6748,-0.6726,-0.6678,-0.6643,-0.659,-0.6555,-0.6486,-0.6432,-0.6375,-0.6342,-0.6322,-0.6317,-0.6309,-0.6319,-0.6336,-0.6327,-0.6367,-0.6318,-0.6318,-0.6318,-0.6318,-0.6318,-0.6967,-0.6937,-0.6887,-0.6839,-0.6802,-0.6763,-0.673,-0.6693,-0.6649,-0.659,-0.6569,-0.6515,-0.6465,-0.6386,-0.6353,-0.631,-0.6308,-0.6296,-0.6294,-0.6291,-0.6293,-0.6344,-0.6299,-0.6299,-0.6299,-0.6299,-0.6299,0,-0.6932,-0.69,-0.6856,-0.6797,-0.6759,-0.6746,-0.6697,-0.6666,-0.6619,-0.6575,-0.6532,-0.6471,-0.642,-0.6372,-0.6318,-0.6293,-0.6282,-0.628,-0.6281,-0.6274,-0.6298,-0.631,-0.6289,-0.6289,-0.6289,-0.6289,-0.6289,-0.629,-0.691,-0.6858,-0.6835,-0.6766,-0.6733,-0.6681,-0.6654,-0.6618,-0.6582,-0.6517,-0.6475,-0.6445,-0.6399,-0.6342,-0.6294,-0.6281,-0.6263,-0.6263,-0.6248,-0.6271,-0.6272,-0.6274,-0.6285,-0.6259,-0.6259,-0.6227,-0.6227,-0.6227]},{"header":{"parameterUnit":"m.s-1","parameterCategory":1,"la1":30.2991,"la2":30.254,"lo1":-89.0895,"lo2":-89.0444,"dy":0.0017,"dx":0.0017,"nx":28,"ny":28,"refTime":"2023-07-30T03:00:00:Z","depth":0,"parameterNumber":3,"parameterNumberName":"V-component_of_WINDS"},"data":[0,0,0,0,0,0,0,0,0,0,0,0,0,0,0,0,0,0,0,0,0,0,0,0,0,0,0,0,0,0,0,0,0,0,0,0,0,0,0,0,0,0,0,0,0,0,0,0,0,0,0,0,0,0,0,0,0,0,2.624,2.6241,0,2.6297,2.6298,2.6298,2.6246,2.6243,2.6241,2.6239,2.6297,2.63,2.6303,0,0,0,0,0,0,0,0,0,0,0,0,0,2.6082,2.6085,2.624,2.6241,2.6242,2.6297,2.6298,2.6298,2.6246,2.6243,2.6241,2.6238,2.6295,2.63,2.6304,0,0,0,0,0,0,0,0,0,0,0,0,0,2.6146,2.6086,2.624,2.6222,2.6221,2.6297,2.6298,2.6299,2.6247,2.6243,2.624,2.6237,2.6294,2.6299,2.6304,2.64,0,0,2.632,2.6323,0,0,0,0,0,0,0,0,2.6142,2.6152,2.6224,2.6223,2.6222,2.6261,2.6263,2.6333,2.6247,2.6237,2.6239,2.6236,2.6287,2.6293,2.631,2.6403,2.6405,2.6321,2.6324,2.6326,2.6328,0,0,0,0,0,0,0,2.6138,2.6149,2.6263,2.6225,2.6224,2.621,2.6215,2.6276,2.6279,2.6238,2.6234,2.6241,2.6286,2.6306,2.6311,2.6406,2.6321,2.6325,2.6329,2.6331,2.6573,2.6576,0,0,0,0,0,0,2.6136,2.6146,2.6261,2.6264,2.6174,2.6215,2.6221,2.6252,2.6278,2.6279,2.6244,2.6239,2.6298,2.6305,2.6313,2.6421,2.6326,2.6331,2.6334,2.657,2.6573,2.6577,0,0,0,0,0,0,2.6133,2.6147,2.6258,2.6204,2.6217,2.6221,2.6256,2.6255,2.6274,2.6283,2.6283,2.6263,2.6296,2.6306,2.6377,2.6423,2.6334,2.6338,2.6566,2.6571,2.6575,2.6642,0,0,0,0,0,0,2.6128,2.6146,2.6184,2.6205,2.622,2.6323,2.6259,2.6258,2.6283,2.6277,2.6301,2.6302,2.6294,2.637,2.6383,2.6428,2.6342,2.6561,2.6568,2.6574,2.6636,2.6649,2.666,0,0,0,0,0,2.6123,2.6202,2.6186,2.62,2.6268,2.6326,2.6334,2.6324,2.6287,2.6323,2.6329,2.6302,2.6417,2.6378,2.6392,2.644,2.6558,2.6566,2.6573,2.663,2.6646,2.666,0,0,0,0,0,0,2.6187,2.6204,2.6187,2.6276,2.6299,2.6317,2.6363,2.6342,2.6377,2.6369,2.6354,2.636,2.6434,2.6445,2.6401,2.653,2.6481,2.6492,2.652,2.6535,2.6547,2.6541,2.6347,0,0,0,0,0,2.6211,2.6258,2.6271,2.6347,2.636,2.636,2.6385,2.6374,2.6398,2.6408,2.6419,2.6443,2.6483,2.6511,2.655,2.6638,2.664,2.6678,2.669,2.67,2.6707,2.6749,2.6764,2.6601,2.6601,2.6601,0,0,2.6262,2.6277,2.6308,2.636,2.6377,2.6423,2.6369,2.6422,2.6454,2.6416,2.6482,2.6491,2.6516,2.6595,2.6631,2.6606,2.6753,2.6709,2.6717,2.6719,2.6758,2.6773,2.6787,2.6606,2.6605,2.6605,0,0,2.6376,2.6395,2.6457,2.6475,2.6501,2.6499,2.6514,2.6535,2.6538,2.6605,2.6575,2.6614,2.6687,2.6704,2.6722,2.6838,2.6812,2.6852,2.6912,2.6953,2.6966,2.6977,2.7012,2.7026,2.686,2.6861,2.6861,0,2.6435,2.6504,2.6492,2.6545,2.6566,2.6533,2.6593,2.6612,2.665,2.6664,2.6637,2.6723,2.6738,2.6817,2.6845,2.6863,2.6876,2.6847,2.6965,2.6976,2.6986,2.702,2.7034,2.6865,2.6864,2.6864,2.6863,0,2.6572,2.662,2.6667,2.6702,2.6729,2.6786,2.678,2.681,2.6796,2.6797,2.6862,2.6879,2.6917,2.6936,2.6925,2.7012,2.6995,2.6968,2.6917,2.7006,2.7037,2.705,2.6871,2.6869,2.6868,2.6867,0,0,2.6728,2.6752,2.6769,2.6781,2.6806,2.6842,2.6896,2.6933,2.6955,2.6982,2.7023,2.7084,2.7056,2.7076,2.7067,2.7103,2.7186,2.7069,2.7069,2.7085,2.7276,2.7293,2.7308,2.717,2.7173,2.7175,2.7272,0,2.6838,2.693,2.6918,2.7006,2.7046,2.7014,2.706,2.7078,2.708,2.7114,2.7116,2.7156,2.712,2.7131,2.7166,2.7168,2.7223,2.7162,2.7204,2.7206,2.7194,2.7326,2.7345,2.7436,2.7284,2.7287,2.7288,0,2.6978,2.7006,2.7097,2.711,2.7126,2.7168,2.7197,2.7232,2.7251,2.7249,2.7271,2.7253,2.7303,2.7255,2.7322,2.728,2.7298,2.7301,2.7304,2.7304,2.7249,2.7323,2.7465,2.7476,2.7308,2.7307,2.7305,0,2.7074,2.7136,2.7196,2.7209,2.7227,2.7256,2.7265,2.7281,2.7302,2.7328,2.7341,2.7374,2.739,2.7415,2.7405,2.7372,2.7472,2.7424,2.7468,2.7468,2.7487,2.7485,2.7628,2.7507,2.7507,2.7507,2.7507,0,2.7195,2.725,2.7238,2.7275,2.7334,2.7321,2.7379,2.7384,2.7398,2.7433,2.741,2.7443,2.743,2.7462,2.7456,2.7508,2.7518,2.7515,2.7511,2.7514,2.7514,2.7522,2.7513,2.751,2.751,2.7509,2.7508,0,2.7311,2.7306,2.7368,2.7379,2.7383,2.7426,2.7434,2.7467,2.7466,2.7511,2.752,2.7519,2.7554,2.7548,2.7589,2.7584,2.7648,2.764,2.7641,2.7637,2.7679,2.7672,2.7827,2.7844,2.7718,2.7719,2.772,0,2.7385,2.7426,2.744,2.7461,2.7471,2.7507,2.7527,2.7514,2.7536,2.7558,2.7587,2.7621,2.7646,2.7705,2.7706,2.7736,2.7725,2.7777,2.7729,2.7728,2.7718,2.7714,2.7715,2.7785,2.7786,2.7787,2.7788,0,2.7516,2.751,2.754,2.7568,2.7592,2.7614,2.7633,2.7652,2.764,2.7665,2.7701,2.772,2.776,2.7791,2.7818,2.7826,2.7804,2.7804,2.7814,2.7815,2.7811,2.7808,2.766,2.7799,2.7798,2.7798,2.7797,2.7797,2.7609,2.7641,2.7655,2.7687,2.77,2.7717,2.7746,2.7748,2.7777,2.7807,2.7798,2.7837,2.7851,2.7884,2.7895,2.7924,2.7904,2.7921,2.7925,2.7928,2.793,2.7811,2.793,2.7929,2.7929,2.7929,2.7929,0,2.7733,2.7739,2.7769,2.7795,2.7819,2.7797,2.7816,2.7838,2.7872,2.7887,2.7911,2.7949,2.7979,2.7983,2.801,2.8032,2.8022,2.8039,2.8035,2.8036,2.7949,2.7934,2.8046,2.8046,2.8046,2.8046,2.8046,2.8046,2.78,2.7851,2.7847,2.7903,2.7909,2.7945,2.7957,2.7972,2.7983,2.8026,2.805,2.8051,2.806,2.8088,2.8113,2.8113,2.8122,2.8141,2.8137,2.8055,2.8043,2.8031,2.8017,2.8145,2.8145,2.8221,2.8221,2.8222]}]]